Location: Melbourne
(37.8170°S, 144.9670°E)
Time: 09:14:06
(UTC+10:00)

Aureole 2 Rocket - Visible Passes

Search period start: 29 August 2014 00:00
Search period end: 08 September 2014 00:00
Orbit: 349 x 763 km, 73.9° (Epoch: 25 August)

Date Brightness Start Highest point End Pass type
(mag) Time Alt. Az. Time Alt. Az. Time Alt. Az.
29 Aug 5.6 05:09:24 10° SSE 05:12:50 22° ESE 05:16:33 10° ENE visible
30 Aug 5.2 05:06:22 10° S 05:10:10 28° ESE 05:14:18 10° NE visible
30 Aug 3.1 19:04:00 10° NNE 19:05:51 26° NE 19:05:51 26° NE visible
31 Aug 4.8 05:03:23 10° S 05:07:27 35° ESE 05:11:54 10° NE visible
31 Aug 2.3 19:00:57 10° N 19:03:40 41° ENE 19:05:24 20° SE visible
01 Sep 4.4 05:00:25 10° S 05:04:42 43° ESE 05:09:24 10° NE visible
01 Sep 2.0 18:57:57 10° N 19:00:47 61° ENE 19:03:51 10° SSE visible
02 Sep 3.9 04:57:28 10° S 05:01:55 55° ESE 05:06:48 10° NNE visible
02 Sep 2.0 18:55:00 10° NNW 18:57:54 89° ENE 19:01:02 10° SSE visible
03 Sep 3.5 04:54:31 10° SSW 04:59:06 69° ESE 05:04:07 10° NNE visible
03 Sep 2.5 18:52:06 10° NNW 18:55:00 63° WSW 18:58:09 10° SSE visible
04 Sep 3.2 04:51:36 10° SSW 04:56:14 86° ESE 05:01:19 10° NNE visible
04 Sep 3.4 18:49:15 10° NW 18:52:05 44° WSW 18:55:11 10° S visible
05 Sep 6.3 03:13:43 10° SE 03:15:29 12° ESE 03:17:17 10° E visible
05 Sep 3.1 04:49:02 12° SSW 04:53:21 77° WNW 04:58:27 10° NNE visible
05 Sep 4.1 18:46:26 10° NW 18:49:09 32° WSW 18:52:08 10° S visible
06 Sep 6.1 03:12:39 15° ESE 03:12:39 15° ESE 03:15:26 10° E visible
06 Sep 3.2 04:48:38 37° SW 04:50:25 62° WNW 04:55:28 10° N visible
06 Sep 4.7 18:43:41 10° WNW 18:46:13 24° WSW 18:49:00 10° S visible
07 Sep 6.1 03:12:30 13° E 03:12:30 13° E 03:13:13 10° ENE visible
07 Sep 3.8 04:48:30 42° NW 04:48:30 42° NW 04:52:25 10° N visible
07 Sep 5.2 18:40:59 10° WNW 18:43:17 19° WSW 18:45:45 10° SSW visible
